Location: Unspecified
(43.4680°N, 87.1740°E)
Time: 04:57:45
(UTC+00:00)

ERS-1 - Pass Details

Date: 17 April 2021
Orbit: 742 x 789 km, 98.6° (Epoch: 16 May)

Event Time Altitude Azimuth Distance (km) Brightness Sun altitude
Rises 21:41:52 0° 10° (N) 3,191 8.4 -17.6°
Reaches altitude 10° 21:44:10 10° 7° (N) 2,264 7.5 -17.3°
Maximum altitude 21:49:05 62° 288° (WNW) 836 4.5 -16.5°
Enters shadow 21:52:02 24° 214° (SW) 1,523 5.5 -16.1°
